Home   Weather   Philadelphia   Past weeks
Flag for USA

Past Weather in Philadelphia, Pennsylvania, USA — Yesterday and Last 2 Weeks

Now
45 °F

Overcast.


Feels Like: 41 °F
Forecast: 46 / 37 °F
Wind: 7 mph from North

Location: Philadelphia International Airport

Current Time: Feb 22, 2019 at 5:54:01 pm

Latest Report: Feb 22, 2019 at 4:54 pm


Visibility: 10 mi

Pressure: 30.38 "Hg

Humidity: 44%

Dew Point: 24 °F

Location of PhiladelphiaLocation

Past Weather in Philadelphia — Graph

°F

Philadelphia Temperature Yesterday

Maximum temperature yesterday: 52 °F (at 2:54 pm)
Minimum temperature yesterday: 34 °F (at 12:13 am)
Average temperature yesterday: 40 °F

High & Low Weather Summary for the Past Weeks

 TemperatureHumidityPressure
High62 °F (Feb 15, 1:54 pm)100% (Feb 21, 12:13 am)30.76 "Hg (Feb 21, 12:13 am)
Low22 °F (Feb 10, 5:54 am)24% (Feb 8, 3:54 pm)29.61 "Hg (Feb 13, 1:15 am)
Average37 °F67%30.16 "Hg
* Reported Feb 7 3:54 pm — Feb 22 3:54 pm, Philadelphia. Weather by CustomWeather, © 2019

Note: Actual official high and low records may vary slightly from our data, if they occured in-between our weather recording intervals... More about our weather records

Advertising

Philadelphia Weather History for the Previous 24 Hours

Scroll right to see more
 ConditionsComfort  
Time TempWeatherWind HumidityBarometerVisibility
3:54 pm
Fri, Feb 22
46 °FOvercast.8 mph42%30.38 "Hg10 mi
2:54 pm46 °FOvercast.7 mph40%30.37 "Hg10 mi
1:54 pm46 °FOvercast.8 mph42%30.36 "Hg10 mi
11:54 am45 °FOvercast.8 mph42%30.39 "Hg10 mi
10:54 am44 °FMostly cloudy.7 mph43%30.39 "Hg10 mi
9:54 am44 °FBroken clouds.10 mph43%30.38 "Hg10 mi
8:54 am41 °FPartly sunny.7 mph47%30.38 "Hg10 mi
7:54 am41 °FPartly sunny.7 mph47%30.35 "Hg10 mi
6:54 am41 °FOvercast.10 mph51%30.32 "Hg10 mi
5:54 am43 °FOvercast.8 mph49%30.30 "Hg10 mi
4:54 am43 °FMostly cloudy.9 mph51%30.26 "Hg10 mi
3:54 am44 °FMostly cloudy.5 mph49%30.24 "Hg10 mi
2:54 am46 °FMostly cloudy.12 mph44%30.23 "Hg10 mi
1:54 am46 °FMostly cloudy.10 mph42%30.23 "Hg10 mi
12:54 am47 °FMostly cloudy.12 mph42%30.23 "Hg10 mi
11:54 pm
Thu, Feb 21
47 °FMostly cloudy.10 mph42%30.19 "Hg10 mi
10:54 pm45 °FMostly cloudy.12 mph56%30.18 "Hg10 mi
9:54 pm47 °FPassing clouds.12 mph50%30.15 "Hg10 mi
8:54 pm47 °FPassing clouds.8 mph59%30.12 "Hg10 mi
7:54 pm47 °FPassing clouds.8 mph61%30.09 "Hg10 mi
6:54 pm47 °FPassing clouds.10 mph59%30.09 "Hg10 mi
5:54 pm48 °FPassing clouds.13 mph54%30.06 "Hg10 mi
Weather by CustomWeather, © 2019

See weather overview